Time,TemperatureF,DewpointF,PressureIn,WindDirection,WindDirectionDegrees,WindSpeedMPH,WindSpeedGustMPH,Humidity,HourlyPrecipIn,Conditions,Clouds,dailyrainin,SoftwareType,DateUTC
2013-07-01 00:01:00,74.0,74.0,29.89,SW,233,5.0,14.0,100,99.99,,,-99.99,,2013-07-01 04:01:00,
2013-07-01 00:11:00,74.0,74.0,29.88,SSE,162,5.0,8.0,100,99.99,,,-99.99,,2013-07-01 04:11:00,
2013-07-01 00:22:00,74.0,74.0,29.88,SSE,162,5.0,8.0,100,99.99,,,-99.99,,2013-07-01 04:22:00,
2013-07-01 00:32:00,74.0,74.0,29.88,SSE,162,5.0,8.0,100,99.99,,,-99.99,,2013-07-01 04:32:00,
2013-07-01 00:43:00,74.0,74.0,29.88,SSE,162,5.0,8.0,100,99.99,,,-99.99,,2013-07-01 04:43:00,
2013-07-01 01:02:00,74.0,74.0,29.90,South,172,3.0,6.0,100,99.99,,,-99.99,,2013-07-01 05:02:00,
2013-07-01 01:11:00,74.0,74.0,29.90,SSW,200,3.0,7.0,100,99.99,,,-99.99,,2013-07-01 05:11:00,
2013-07-01 01:22:00,74.0,74.0,29.90,South,170,2.0,7.0,100,99.99,,,-99.99,,2013-07-01 05:22:00,
2013-07-01 01:33:00,74.0,74.0,29.90,South,181,2.0,4.0,100,99.99,,,-99.99,,2013-07-01 05:33:00,
2013-07-01 01:42:00,74.0,74.0,29.90,WSW,255,2.0,5.0,100,99.99,,,-99.99,,2013-07-01 05:42:00,
2013-07-01 01:52:00,74.0,74.0,29.90,SW,225,1.0,3.0,100,99.99,,,-99.99,,2013-07-01 05:52:00,
2013-07-01 02:02:00,74.0,74.0,29.89,SW,231,3.0,6.0,100,99.99,,,-99.99,,2013-07-01 06:02:00,
2013-07-01 02:12:00,74.0,74.0,29.90,SSW,205,2.0,4.0,100,99.99,,,-99.99,,2013-07-01 06:12:00,
2013-07-01 02:24:00,74.0,74.0,29.90,SSE,156,3.0,6.0,100,99.99,,,-99.99,,2013-07-01 06:24:00,
2013-07-01 02:33:00,74.0,74.0,29.90,West,259,3.0,5.0,100,99.99,,,-99.99,,2013-07-01 06:33:00,
2013-07-01 02:43:00,74.0,74.0,29.90,SSE,167,3.0,6.0,100,99.99,,,-99.99,,2013-07-01 06:43:00,
2013-07-01 02:53:00,74.0,74.0,29.89,WSW,248,4.0,7.0,100,99.99,,,-99.99,,2013-07-01 06:53:00,
2013-07-01 03:01:00,74.0,74.0,29.89,South,191,3.0,6.0,100,99.99,,,-99.99,,2013-07-01 07:01:00,
2013-07-01 03:11:00,74.0,74.0,29.88,South,190,3.0,6.0,100,99.99,,,-99.99,,2013-07-01 07:11:00,
2013-07-01 03:22:00,74.0,74.0,29.88,South,188,3.0,6.0,100,99.99,,,-99.99,,2013-07-01 07:22:00,
2013-07-01 03:33:00,74.0,74.0,29.88,SSW,194,3.0,5.0,100,99.99,,,-99.99,,2013-07-01 07:33:00,
2013-07-01 03:43:00,74.0,74.0,29.87,WSW,246,2.0,5.0,100,99.99,,,-99.99,,2013-07-01 07:43:00,
2013-07-01 03:53:00,74.0,74.0,29.87,WSW,238,1.0,2.0,100,99.99,,,-99.99,,2013-07-01 07:53:00,
2013-07-01 04:01:00,74.0,74.0,29.88,South,188,1.0,3.0,100,99.99,,,-99.99,,2013-07-01 08:01:00,
2013-07-01 04:11:00,74.0,74.0,29.88,South,173,1.0,4.0,100,99.99,,,-99.99,,2013-07-01 08:11:00,
2013-07-01 04:22:00,74.0,74.0,29.88,South,173,2.0,3.0,100,99.99,,,-99.99,,2013-07-01 08:22:00,
2013-07-01 04:33:00,74.0,74.0,29.88,South,191,1.0,4.0,100,99.99,,,-99.99,,2013-07-01 08:33:00,
2013-07-01 04:42:00,74.0,74.0,29.88,WSW,250,2.0,4.0,100,99.99,,,-99.99,,2013-07-01 08:42:00,
2013-07-01 04:52:00,74.0,74.0,29.88,South,169,3.0,6.0,100,99.99,,,-99.99,,2013-07-01 08:52:00,
2013-07-01 05:02:00,74.0,74.0,29.88,SW,235,3.0,6.0,100,99.99,,,-99.99,,2013-07-01 09:02:00,
2013-07-01 05:11:00,74.0,74.0,29.88,South,190,3.0,6.0,100,99.99,,,-99.99,,2013-07-01 09:11:00,
2013-07-01 05:22:00,74.0,74.0,29.87,South,179,4.0,8.0,100,99.99,,,-99.99,,2013-07-01 09:22:00,
2013-07-01 05:34:00,74.0,74.0,29.87,South,181,3.0,6.0,100,99.99,,,-99.99,,2013-07-01 09:34:00,
2013-07-01 05:43:00,74.0,74.0,29.87,South,173,3.0,8.0,100,99.99,,,-99.99,,2013-07-01 09:43:00,
2013-07-01 05:53:00,74.0,74.0,29.87,SSE,149,3.0,7.0,100,99.99,,,-99.99,,2013-07-01 09:53:00,
2013-07-01 06:03:00,74.0,74.0,29.86,South,180,3.0,6.0,100,99.99,,,-99.99,,2013-07-01 10:03:00,
2013-07-01 06:11:00,74.0,74.0,29.87,SSW,211,4.0,7.0,100,99.99,,,-99.99,,2013-07-01 10:11:00,
2013-07-01 06:22:00,74.0,74.0,29.88,South,190,2.0,6.0,100,99.99,,,-99.99,,2013-07-01 10:22:00,
2013-07-01 06:33:00,74.0,74.0,29.88,WSW,248,3.0,6.0,100,99.99,,,-99.99,,2013-07-01 10:33:00,
2013-07-01 06:42:00,74.0,74.0,29.89,SW,229,3.0,7.0,100,99.99,,,-99.99,,2013-07-01 10:42:00,
2013-07-01 06:52:00,73.0,73.0,29.90,South,177,5.0,11.0,100,99.99,,,-99.99,,2013-07-01 10:52:00,
2013-07-01 07:02:00,74.0,74.0,29.90,SSE,163,4.0,10.0,100,99.99,,,-99.99,,2013-07-01 11:02:00,
2013-07-01 07:11:00,74.0,74.0,29.90,SSW,204,5.0,10.0,100,99.99,,,-99.99,,2013-07-01 11:11:00,
2013-07-01 07:22:00,74.0,74.0,29.91,SSW,193,5.0,10.0,100,99.99,,,-99.99,,2013-07-01 11:22:00,
2013-07-01 07:33:00,74.0,74.0,29.91,South,174,5.0,10.0,100,99.99,,,-99.99,,2013-07-01 11:33:00,
2013-07-01 07:43:00,74.0,74.0,29.91,SW,236,5.0,10.0,100,99.99,,,-99.99,,2013-07-01 11:43:00,
2013-07-01 07:52:00,74.0,74.0,29.92,South,173,5.0,10.0,100,99.99,,,-99.99,,2013-07-01 11:52:00,
2013-07-01 08:01:00,74.0,74.0,29.92,SSW,194,6.0,13.0,100,99.99,,,-99.99,,2013-07-01 12:01:00,
2013-07-01 08:11:00,74.0,74.0,29.92,South,172,5.0,9.0,100,99.99,,,-99.99,,2013-07-01 12:11:00,
2013-07-01 08:22:00,74.0,74.0,29.92,SW,225,5.0,9.0,100,99.99,,,-99.99,,2013-07-01 12:22:00,
2013-07-01 08:33:00,74.0,74.0,29.92,WSW,256,5.0,11.0,100,99.99,,,-99.99,,2013-07-01 12:33:00,
2013-07-01 08:43:00,74.0,74.0,29.92,South,184,3.0,6.0,100,99.99,,,-99.99,,2013-07-01 12:43:00,
2013-07-01 08:53:00,74.0,74.0,29.92,South,190,4.0,8.0,100,99.99,,,-99.99,,2013-07-01 12:53:00,
2013-07-01 09:02:00,73.0,73.0,29.92,SW,233,4.0,11.0,100,99.99,,,-99.99,,2013-07-01 13:02:00,
2013-07-01 09:12:00,73.0,73.0,29.92,SW,235,3.0,8.0,100,99.99,,,-99.99,,2013-07-01 13:12:00,
2013-07-01 09:23:00,73.0,73.0,29.92,SW,233,3.0,7.0,100,99.99,,,-99.99,,2013-07-01 13:23:00,
2013-07-01 09:33:00,73.0,73.0,29.92,SW,222,4.0,6.0,100,99.99,,,-99.99,,2013-07-01 13:33:00,
2013-07-01 09:53:00,73.0,73.0,29.93,SW,231,4.0,6.0,100,99.99,,,-99.99,,2013-07-01 13:53:00,
2013-07-01 10:01:00,73.0,73.0,29.92,WSW,239,4.0,9.0,100,99.99,,,-99.99,,2013-07-01 14:01:00,
2013-07-01 10:34:00,74.0,74.0,29.93,South,191,2.0,3.0,100,99.99,,,-99.99,,2013-07-01 14:34:00,
2013-07-01 10:43:00,75.0,75.0,29.93,WSW,239,2.0,5.0,100,99.99,,,-99.99,,2013-07-01 14:43:00,
2013-07-01 11:34:00,76.0,76.0,29.94,South,172,3.0,6.0,100,99.99,,,-99.99,,2013-07-01 15:34:00,
2013-07-01 11:43:00,77.0,77.0,29.94,SSE,163,3.0,6.0,100,99.99,,,-99.99,,2013-07-01 15:43:00,
2013-07-01 12:53:00,79.0,78.0,29.96,WSW,239,2.0,6.0,98,99.99,,,-99.99,,2013-07-01 16:53:00,
2013-07-01 14:33:00,78.0,78.0,29.95,WNW,298,0.0,1.0,100,99.99,,,-99.99,,2013-07-01 18:33:00,
2013-07-01 15:02:00,74.0,74.0,29.97,WSW,250,6.0,11.0,100,99.99,,,-99.99,,2013-07-01 19:02:00,
2013-07-01 15:33:00,74.0,74.0,29.96,SW,231,4.0,8.0,100,99.99,,,-99.99,,2013-07-01 19:33:00,
2013-07-01 15:44:00,74.0,74.0,29.96,WSW,252,2.0,8.0,100,99.99,,,-99.99,,2013-07-01 19:44:00,
2013-07-01 15:52:00,74.0,74.0,29.96,South,187,2.0,6.0,100,99.99,,,-99.99,,2013-07-01 19:52:00,
2013-07-01 16:43:00,76.0,76.0,29.96,WSW,239,3.0,5.0,100,99.99,,,-99.99,,2013-07-01 20:43:00,
2013-07-01 16:52:00,76.0,76.0,29.96,SW,236,3.0,6.0,100,99.99,,,-99.99,,2013-07-01 20:52:00,
2013-07-01 17:34:00,76.0,76.0,29.96,West,270,3.0,5.0,100,99.99,,,-99.99,,2013-07-01 21:34:00,
2013-07-01 17:43:00,77.0,77.0,29.96,WSW,249,2.0,8.0,100,99.99,,,-99.99,,2013-07-01 21:43:00,
2013-07-01 17:53:00,77.0,77.0,29.96,WSW,250,3.0,6.0,100,99.99,,,-99.99,,2013-07-01 21:53:00,
2013-07-01 18:24:00,76.0,76.0,29.98,SSW,204,6.0,11.0,100,99.99,,,-99.99,,2013-07-01 22:24:00,
2013-07-01 18:43:00,73.0,73.0,29.98,South,173,3.0,10.0,100,99.99,,,-99.99,,2013-07-01 22:43:00,
2013-07-01 18:53:00,72.0,72.0,29.99,SSW,197,3.0,7.0,100,99.99,,,-99.99,,2013-07-01 22:53:00,
2013-07-01 19:01:00,72.0,72.0,29.98,South,179,2.0,7.0,100,99.99,,,-99.99,,2013-07-01 23:01:00,
2013-07-01 19:11:00,72.0,72.0,29.99,WSW,240,1.0,4.0,100,99.99,,,-99.99,,2013-07-01 23:11:00,
2013-07-01 19:22:00,72.0,72.0,29.99,South,190,1.0,4.0,100,99.99,,,-99.99,,2013-07-01 23:22:00,
2013-07-01 19:33:00,72.0,72.0,29.99,SSW,198,0.0,3.0,100,99.99,,,-99.99,,2013-07-01 23:33:00,
2013-07-01 19:44:00,72.0,72.0,29.98,SSE,149,0.0,2.0,100,99.99,,,-99.99,,2013-07-01 23:44:00,
2013-07-01 19:53:00,72.0,72.0,29.98,North,0,0.0,0.0,100,99.99,,,-99.99,,2013-07-01 23:53:00,
2013-07-01 20:01:00,72.0,72.0,29.98,North,0,0.0,0.0,100,99.99,,,-99.99,,2013-07-02 00:01:00,
2013-07-01 20:12:00,72.0,72.0,29.98,North,0,0.0,0.0,100,99.99,,,-99.99,,2013-07-02 00:12:00,
2013-07-01 20:22:00,73.0,73.0,29.99,North,0,0.0,0.0,100,99.99,,,-99.99,,2013-07-02 00:22:00,
2013-07-01 20:34:00,73.0,73.0,29.99,South,183,0.0,3.0,100,99.99,,,-99.99,,2013-07-02 00:34:00,
2013-07-01 20:43:00,73.0,73.0,29.99,North,0,0.0,0.0,100,99.99,,,-99.99,,2013-07-02 00:43:00,
2013-07-01 20:53:00,73.0,73.0,30.00,North,0,0.0,0.0,100,99.99,,,-99.99,,2013-07-02 00:53:00,
2013-07-01 21:01:00,73.0,73.0,30.00,South,169,0.0,3.0,100,99.99,,,-99.99,,2013-07-02 01:01:00,
2013-07-01 21:11:00,73.0,73.0,30.00,SSE,159,1.0,5.0,100,99.99,,,-99.99,,2013-07-02 01:11:00,
2013-07-01 21:33:00,73.0,73.0,30.00,SSE,153,1.0,5.0,100,99.99,,,-99.99,,2013-07-02 01:33:00,
2013-07-01 21:53:00,73.0,73.0,30.01,SSW,198,0.0,2.0,100,99.99,,,-99.99,,2013-07-02 01:53:00,